CAPE
0 0 0 0 0 0 0 0 0 0 0 0 0 5 0 31 113 143 176 204 230 180
0 0 0 0 0 0 0 0 0 0 0 0 0 0 0 0 1 9 64 108 186 322
0 0 0 0 0 0 0 0 0 0 0 0 0 0 0 0 2 3 5 1 36 119
0 0 0 0 0 0 0 0 0 0 0 0 0 0 0 0 0 0 2 5 1 0
0 0 0 0 0 0 0 0 0 0 0 0 0 0 0 0 0 0 0 0 0 3
0 0 0 0 0 0 0 0 0 0 0 0 0 0 0 0 0 0 0 0 0 6
0 0 0 0 0 0 0 0 0 0 0 0 0 0 0 0 0 0 0 0 0 0
0 0 0 0 0 0 0 0 0 0 0 0 0 0 0 0 0 0 0 0 0 0
0 0 0 0 0 0 0 0 0 0 0 0 0 0 0 0 0 0 0 0 0 0
0 0 0 0 0 0 0 0 0 0 0 0 0 0 0 0 0 0 0 0 0 0
0 0 0 0 0 1 1 1 0 0 0 0 0 0 0 0 0 0 0 0 0 0
0 0 0 0 0 2 2 0 0 0 0 1 0 0 0 0 0 0 0 0 0 0
0 0 0 1 0 0 2 0 0 0 0 1 1 1 0 0 0 0 0 0 0 0
2 2 1 0 0 0 2 1 0 1 0 1 2 1 0 0 1 1 1 0 0 0
CIN
0 0 0 0 0 0 0 0 0 0 0 0 0 -129 -28 -302 -283 -292 -287 -255 -235 -232
0 0 0 0 0 0 0 0 0 0 0 0 0 0 0 0 0 -356 -342 -304 -247 -176
0 0 0 0 0 0 0 0 0 0 0 0 0 0 0 0 0 0 0 0 -199 -233
0 0 0 0 0 0 0 0 0 0 0 0 0 0 0 0 0 -1 -1 0 0 0
0 0 0 0 0 0 0 0 0 0 0 0 0 0 0 0 0 0 0 0 0 -1
0 0 0 0 0 0 0 0 0 0 0 0 0 0 0 0 0 0 0 0 0 -1
0 0 0 0 0 0 0 0 0 0 0 0 0 0 0 0 0 0 0 0 0 0
0 0 0 0 0 0 0 0 0 0 0 0 0 0 0 0 -1 0 0 0 0 0
0 0 0 0 0 0 0 0 0 0 0 0 0 0 0 0 0 0 0 0 0 0
0 0 0 0 0 0 0 0 0 0 0 0 0 0 0 0 0 0 0 0 0 0
0 0 0 0 0 -1 -1 -1 -1 -1 -1 -1 0 0 0 0 0 0 0 0 0 -1
0 0 0 -1 -1 -1 -1 -2 -1 0 0 -1 0 -1 0 0 0 0 0 0 0 0
-1 -2 -2 -1 -1 -1 -1 -1 -1 0 0 -1 -1 -1 -1 0 0 0 0 0 0 0
-1 -1 -1 -1 -1 -1 -2 -2 -2 -2 -1 -1 -1 -1 0 -1 -1 -2 -2 -1 0 -1
Wind_Speed
22 22 22 20 20 21 23 22 24 24 21 20 21 22 23 23 22 21 22 22 22 21
22 22 21 21 22 22 24 24 24 24 24 23 23 23 22 22 22 22 22 23 24 24
19 19 21 22 23 23 24 25 26 27 26 26 24 23 22 23 24 24 24 24 26 29
21 21 22 22 23 26 27 26 26 30 30 29 27 26 25 25 26 27 26 26 27 30
22 23 24 25 26 28 29 28 28 31 32 31 29 29 29 28 27 29 30 29 29 31
22 24 25 26 28 30 32 34 34 33 32 33 32 32 31 29 29 29 30 30 30 30
25 27 29 30 32 34 36 38 39 39 37 36 36 36 34 33 33 31 31 32 32 30
28 30 33 36 37 37 37 37 38 37 38 38 37 35 36 37 37 36 35 35 33 31
31 34 37 38 38 38 38 37 37 37 37 38 37 38 40 40 40 38 37 38 37 34
35 36 37 37 37 38 38 38 37 36 36 37 38 39 41 41 42 41 41 40 38 36
38 37 37 37 37 37 37 37 36 36 36 36 36 38 39 41 41 42 41 40 38 38
37 39 39 40 41 40 39 38 37 36 36 36 36 35 37 38 39 41 41 38 38 39
35 37 39 39 38 38 38 38 37 38 36 36 36 34 32 36 36 37 36 37 35 33
35 35 37 37 37 37 37 37 37 37 36 36 35 35 34 33 34 34 34 34 34 32
Wind_Direction
347 344 342 339 326 322 317 314 319 321 324 323 319 315 313 312 313 312 310 308 308 310
351 348 348 348 339 334 329 319 312 316 316 315 316 315 315 315 316 317 314 309 306 306
350 347 344 337 337 334 333 332 318 310 309 308 309 312 314 310 312 314 313 312 307 300
352 345 335 330 329 321 323 323 323 306 302 302 303 305 309 309 308 309 310 313 311 303
348 346 342 334 322 314 314 316 314 310 302 303 306 302 302 305 307 305 304 309 309 301
342 337 336 335 328 321 311 306 300 305 304 299 300 301 302 302 302 302 302 303 305 305
335 331 327 326 323 318 314 307 300 293 297 298 295 296 296 298 298 300 300 298 300 304
328 325 322 319 318 317 315 312 308 306 300 297 296 296 296 295 294 293 294 294 296 299
325 322 320 319 317 315 313 314 311 305 304 299 298 293 292 291 288 291 290 288 289 293
323 321 320 318 317 315 313 312 311 309 307 302 298 295 291 288 283 283 281 283 287 288
319 319 318 317 316 315 315 313 312 311 309 307 304 299 295 292 288 282 282 284 287 286
317 315 314 311 310 310 310 311 311 311 310 309 307 305 301 298 292 285 285 288 287 285
322 319 317 316 315 314 312 310 311 309 310 309 309 309 307 303 298 293 292 292 292 291
322 321 320 318 317 316 314 314 313 312 312 311 311 311 309 307 302 298 295 294 292 292